Date String (YYYY-MM-DD hh:mm:ss) UTC,Instrument flags,Ambient pressure (hPa),Sample flow (lpm),Bypass flow (lpm),Sample temperature (°C),Ambient temperature (°C),ASC tube jacket temperature (°C),LED temperature (°C),Box temperature (°C),Sample RH (%),Span deviation,Mass concentration (μg/m³),Mass concentration (μg/m³),Mass concentration (μg/m³)
DateTimeUTC,F1_M11,P_M11,Q1_M11,Q2_M11,T1_M11,T2_M11,T3_M11,T4_M11,T5_M11,U1_M11,ZSPAN_M11,X0_M11,X2_M11,X1_M11
2023-05-08 19:00:00,,0829.4,4.99,0.00,29.6,27.8,00.0,38.0,31.3,15.6,-000.3,0012.42,0005.36,0004.26
2023-05-08 19:01:00,,0829.4,5.00,0.00,29.6,28.0,00.0,38.0,31.3,15.6,-000.5,0012.42,0005.36,0004.31
2023-05-08 19:02:00,,0829.4,5.01,0.00,29.6,28.1,00.0,38.0,31.4,15.9,0001.0,0012.15,0005.36,0004.35
2023-05-08 19:03:00,,0829.4,4.99,0.00,29.7,28.2,00.0,38.0,31.4,15.6,0000.3,0012.27,0005.35,0004.36
2023-05-08 19:04:00,,0829.4,5.00,0.00,29.7,28.3,00.0,38.0,31.4,15.4,-000.5,0012.63,0005.41,0004.40
2023-05-08 19:05:00,,0829.4,5.01,0.00,29.7,28.4,00.0,38.0,31.5,15.3,-000.7,0012.87,0005.43,0004.43
2023-05-08 19:06:00,,0829.5,5.01,0.00,29.8,28.5,00.0,38.0,31.5,15.3,-000.2,0012.58,0005.47,0004.45
2023-05-08 19:07:00,,0829.5,4.99,0.00,29.8,28.6,00.0,38.1,31.5,15.3,-000.4,0012.20,0005.49,0004.47
2023-05-08 19:08:00,,0829.4,4.99,0.00,29.8,28.6,00.0,38.1,31.6,15.3,0000.8,0012.72,0005.43,0004.46
2023-05-08 19:09:00,,0829.3,5.01,0.00,29.9,28.7,00.0,38.1,31.6,15.3,0001.0,0013.15,0005.45,0004.48
2023-05-08 19:10:00,,0829.5,5.00,0.00,29.9,28.8,00.0,38.1,31.7,15.5,-000.2,0013.43,0005.42,0004.47
2023-05-08 19:11:00,,0829.3,4.99,0.00,29.9,28.8,00.0,38.2,31.7,15.4,-000.1,0013.44,0005.37,0004.45
2023-05-08 19:12:00,,0829.3,4.99,0.00,30.0,28.1,00.0,38.2,31.7,15.3,-000.4,0014.03,0005.40,0004.45
2023-05-08 19:13:00,,0829.3,5.00,0.00,29.9,26.2,00.0,38.1,31.4,15.4,-001.0,0014.05,0005.45,0004.45
2023-05-08 19:14:00,,0829.4,5.01,0.00,29.8,25.4,00.0,38.0,31.2,15.0,-000.8,0014.12,0005.46,0004.47
2023-05-08 19:15:00,,0829.4,5.01,0.00,29.8,25.6,00.0,38.0,31.1,15.1,-000.8,0013.83,0005.45,0004.48
2023-05-08 19:16:00,,0829.3,5.00,0.00,29.7,25.9,00.0,38.0,31.1,15.2,-000.8,0014.53,0005.48,0004.49
2023-05-08 19:17:00,,0829.4,4.99,0.00,29.6,26.3,00.0,38.0,31.1,15.2,-001.0,0014.81,0005.51,0004.51
2023-05-08 19:18:00,,0829.3,4.99,0.00,29.6,26.7,00.0,38.0,31.2,15.3,-000.2,0015.02,0005.56,0004.53
2023-05-08 19:19:00,,0829.3,5.01,0.00,29.6,27.0,00.0,38.0,31.2,15.3,-000.9,0015.17,0005.65,0004.55
2023-05-08 19:20:00,,0829.4,4.99,0.00,29.6,27.3,00.0,38.0,31.2,15.6,-000.5,0015.09,0005.68,0004.55
2023-05-08 19:21:00,,0829.3,5.00,0.00,29.6,27.5,00.0,38.0,31.3,15.4,0000.0,0015.31,0005.69,0004.55
2023-05-08 19:22:00,,0829.4,4.99,0.00,29.6,27.7,00.0,38.0,31.3,15.3,-000.3,0015.17,0005.74,0004.61
2023-05-08 19:23:00,,0829.3,5.00,0.00,29.7,27.9,00.0,38.0,31.4,15.4,-000.0,0015.30,0005.81,0004.68
2023-05-08 19:24:00,,0829.3,5.01,0.00,29.7,28.1,00.0,38.0,31.4,14.9,0000.1,0015.22,0005.83,0004.73
2023-05-08 19:25:00,,0829.4,5.00,0.00,29.7,28.2,00.0,38.0,31.4,14.8,-000.1,0015.56,0005.91,0004.79
2023-05-08 19:26:00,,0829.3,4.99,0.00,29.7,28.3,00.0,38.0,31.5,15.0,0000.8,0016.35,0005.98,0004.83
2023-05-08 19:27:00,,0829.3,4.99,0.00,29.8,28.4,00.0,38.0,31.5,15.3,0001.3,0017.30,0006.06,0004.86
2023-05-08 19:28:00,,0829.4,5.01,0.00,29.8,28.5,00.0,38.1,31.5,15.2,0001.2,0018.00,0006.10,0004.87
2023-05-08 19:29:00,,0829.4,5.01,0.00,29.8,28.6,00.0,38.1,31.6,15.2,0000.6,0018.82,0006.12,0004.87
2023-05-08 19:30:00,,0829.4,4.99,0.00,29.9,28.6,00.0,38.1,31.6,15.0,0000.7,0018.52,0006.16,0004.91
2023-05-08 19:31:00,,0829.4,4.99,0.00,29.9,28.7,00.0,38.1,31.7,14.7,0000.8,0018.29,0006.24,0004.96
2023-05-08 19:32:00,,0829.3,5.00,0.00,29.9,28.7,00.0,38.2,31.7,14.7,0001.2,0018.16,0006.33,0005.02
2023-05-08 19:33:00,,0829.3,4.99,0.00,29.9,27.6,00.0,38.1,31.5,14.9,0001.6,0019.20,0006.43,0005.04
2023-05-08 19:34:00,,0829.2,5.01,0.00,29.9,25.7,00.0,38.1,31.2,15.1,0001.8,0019.83,0006.44,0005.04
2023-05-08 19:35:00,,0829.2,5.00,0.00,29.8,25.2,00.0,38.0,31.0,15.4,0001.7,0019.75,0006.50,0005.05
2023-05-08 19:36:00,,0829.2,5.01,0.00,29.7,25.4,00.0,37.9,30.9,15.2,0001.8,0019.90,0006.52,0005.04
2023-05-08 19:37:00,,0829.1,5.01,0.00,29.6,25.8,00.0,37.9,31.0,15.4,0001.3,0020.83,0006.50,0005.03
2023-05-08 19:38:00,,0829.1,5.00,0.00,29.5,26.2,00.0,37.9,31.0,15.4,0000.5,0019.14,0006.49,0005.03
2023-05-08 19:39:00,,0829.1,5.00,0.00,29.5,26.6,00.0,37.9,31.1,15.7,0000.7,0018.65,0006.49,0005.05
2023-05-08 19:40:00,,0829.1,5.00,0.00,29.5,26.9,00.0,37.9,31.1,15.5,0000.6,0017.74,0006.48,0005.08
2023-05-08 19:41:00,,0829.1,4.99,0.00,29.5,27.2,00.0,37.9,31.2,15.5,0000.6,0017.85,0006.47,0005.09
2023-05-08 19:42:00,,0829.2,5.00,0.00,29.6,27.5,00.0,37.9,31.2,15.8,0000.1,0018.47,0006.42,0005.09
2023-05-08 19:43:00,,0829.1,4.99,0.00,29.6,27.7,00.0,37.9,31.3,15.3,-000.7,0018.53,0006.41,0005.08
2023-05-08 19:44:00,,0829.1,5.01,0.00,29.6,27.9,00.0,38.0,31.3,15.1,-001.4,0018.98,0006.38,0005.08
2023-05-08 19:45:00,,0829.1,5.01,0.00,29.6,28.0,00.0,38.0,31.3,14.9,-001.5,0018.70,0006.33,0005.09
2023-05-08 19:46:00,,0829.0,4.99,0.00,29.7,28.2,00.0,38.0,31.4,14.9,-001.0,0018.45,0006.35,0005.09
2023-05-08 19:47:00,,0829.0,5.00,0.00,29.7,28.3,00.0,38.0,31.4,14.9,-000.8,0018.44,0006.35,0005.09
2023-05-08 19:48:00,,0829.1,5.01,0.00,29.7,28.4,00.0,38.0,31.5,14.8,-000.5,0017.02,0006.35,0005.11
2023-05-08 19:49:00,,0829.1,5.00,0.00,29.8,28.5,00.0,38.0,31.5,14.8,0000.4,0016.77,0006.35,0005.13
2023-05-08 19:50:00,,0829.1,5.00,0.00,29.8,28.6,00.0,38.1,31.6,14.7,0000.6,0016.69,0006.36,0005.14
2023-05-08 19:51:00,,0829.0,5.00,0.00,29.8,28.6,00.0,38.1,31.6,14.6,0001.2,0016.91,0006.33,0005.15
2023-05-08 19:52:00,,0829.0,5.01,0.00,29.9,28.7,00.0,38.1,31.6,14.6,0001.5,0017.04,0006.26,0005.14
2023-05-08 19:53:00,,0829.0,5.00,0.00,29.9,28.7,00.0,38.1,31.7,14.5,0001.4,0016.51,0006.28,0005.15
2023-05-08 19:54:00,,0829.0,4.98,0.00,29.9,27.3,00.0,38.1,31.4,13.9,0002.0,0017.43,0006.31,0005.16
2023-05-08 19:55:00,,0828.9,5.01,0.00,29.8,25.5,00.0,38.0,31.1,14.0,0002.0,0016.40,0006.32,0005.16
2023-05-08 19:56:00,,0829.0,5.01,0.00,29.7,25.2,00.0,37.9,31.0,14.1,0002.5,0015.87,0006.33,0005.17
2023-05-08 19:57:00,,0828.9,5.01,0.00,29.6,25.5,00.0,37.9,30.9,14.1,0002.5,0015.58,0006.29,0005.15
2023-05-08 19:58:00,,0828.9,4.99,0.00,29.5,25.9,00.0,37.9,31.0,14.3,0002.7,0015.94,0006.34,0005.16
2023-05-08 19:59:00,,0829.0,4.99,0.00,29.5,26.3,00.0,37.9,31.0,14.2,0002.7,0016.58,0006.37,0005.13
